Terminal Aerodrome Forecast
Issued by NWS Twin Cities, MN

Home | Current Version | Previous Version | Graphics & Text | Print | Product List | Glossary On
Versions: 1 2 3 4 5 6 7 8 9 10 11 12 13 14 15 16 17 18 19 20 21 22 23 24 25 26 27 28
000
FTUS43 KMPX 151700
TAFMSP
TAF
KMSP 151727Z 1518/1624 28007KT P6SM FEW250
     FM152200 20006KT P6SM BKN150
     FM161000 12015G22KT P6SM VCSH OVC050
     FM161700 16016G23KT 5SM -RA OVC030
     FM162200 10012G18KT 3SM -SN OVC015=

USA.gov is the U.S. government's official web portal to all federal, state and local government web resources and services.